SALSAT (46495 NORAD) Tracking and Keplerian Element Data

This shows tracking and keplerian element data for the satellite.

Feedback or suggestion? Click here.




ElementValue
Catalog46495
NameSALSAT
Epoch Orbit1806
Epoch Day26.89301114
Epoch Year2021
RAAN325.346
Inclination97.682
Eccentricity0.0016991
Argument of Perigee187.1047
Mean Anonmoly172.9941
Mean Motion15.03338379
Decay Rate8.53E-06
L11 46495U 20068K 21026.89301114 .00000853 00000-0 67248-4 0 9999
L22 46495 97.6820 325.3460 0016991 187.1047 172.9941 15.03338379 18069

Live tracking and technical data element details for SALSAT (NORAD 46495). SALSAT can be tracked NOW for your location showing map with azimuth and elevation plus other details from your city location.

Track the satellite on the map from your city or location and see movement details for azimuth, elevation, latitude, longitude, range, height, and movement on the map or in text.







IsCatalogInMostPopularTable: catalog: 46495, numindb: 43
Update: records affected: 1



GetName: 46495 SALSAT

Hit Count: updated at: Thu, 28 Jan 2021 11:52:04 GMT